Flag for U.S.A. Weather past 2 weeks in Fort Lauderdale, Florida, U.S.A.

80 °F

Passing clouds.

Feels Like: 82 °F
Forecast: 74 / 78 °F
Wind: 17 mph from East

Location: Fort Lauderdale / Hollywood International Airport

Current Time: Nov 27, 2015 at 12:47:44 PM

Latest Report: Nov 27, 2015 at 11:53 AM

Visibility: 10 mi

Pressure: 30.16 "Hg

Humidity: 62%

Dew point: 66 °F

Location of Fort LauderdaleLocation

Historic Weather in Fort Lauderdale — Graph


Fort Lauderdale temperature yesterday

Maximum temperature yesterday: 81 °F (at 11:53 AM)
Minimum temperature yesterday: 75 °F (at 12:53 AM)
Average temperature yesterday: 77 °F

Past Weeks' High & Low Weather Summary

High86 °F (Nov 12, 11:53 AM)100% (Nov 14, 3:53 AM)30.29 "Hg (Nov 14, 3:53 AM)
Low62 °F (Nov 24, 2:53 AM)48% (Nov 24, 11:53 AM)29.78 "Hg (Nov 22, 2:53 PM)
Average77 °F77%30.04 "Hg
* Reported Nov 12 10:53 AM — Nov 27 10:53 AM, Fort Lauderdale, Weather by CustomWeather, © 2015

Note: Actual official high and low records may vary slightly from our data, if they occured in-between our weather recording intervals... More about our weather records


Fort Lauderdale weather history for previous 24 hours

Time TempWeatherWind HumidityBarometerVisibility
10:53 AM
Fri, Nov 27
80 °FScattered clouds.17 mph62%30.19 "Hg10 mi
9:53 AM80 °FPassing clouds.17 mph64%30.19 "Hg10 mi
8:53 AM78 °FPassing clouds.16 mph64%30.19 "Hg10 mi
7:53 AM76 °FPassing clouds.13 mph67%30.19 "Hg10 mi
6:53 AM75 °FScattered clouds.17 mph69%30.17 "Hg10 mi
5:53 AM75 °FPassing clouds.16 mph66%30.16 "Hg10 mi
4:53 AM75 °FPassing clouds.18 mph69%30.16 "Hg10 mi
3:53 AM75 °FPassing clouds.17 mph69%30.16 "Hg10 mi
2:53 AM75 °FPassing clouds.16 mph69%30.16 "Hg10 mi
1:53 AM75 °FPassing clouds.17 mph69%30.17 "Hg10 mi
12:53 AM76 °FPassing clouds.15 mph67%30.17 "Hg10 mi
11:53 PM
Thu, Nov 26
76 °FPassing clouds.22 mph69%30.19 "Hg10 mi
10:53 PM76 °FPartly cloudy.20 mph69%30.20 "Hg10 mi
9:53 PM76 °FPassing clouds.18 mph69%30.20 "Hg10 mi
8:53 PM76 °FPassing clouds.16 mph69%30.20 "Hg10 mi
7:53 PM76 °FPassing clouds.15 mph67%30.20 "Hg10 mi
6:53 PM76 °FPassing clouds.18 mph64%30.20 "Hg10 mi
5:53 PM76 °FPassing clouds.17 mph67%30.19 "Hg10 mi
4:53 PM77 °FPassing clouds.17 mph56%30.20 "Hg10 mi
3:53 PM78 °FPassing clouds.13 mph56%30.20 "Hg10 mi
2:53 PM79 °FPassing clouds.20 mph58%30.21 "Hg10 mi
1:53 PM80 °FScattered clouds.16 mph56%30.22 "Hg10 mi
12:53 PM79 °FBroken clouds.22 mph58%30.24 "Hg10 mi
Weather by CustomWeather, © 2015

See weather overviewHow to use our weather pages